Morrisville, VT

5:09 AM EST on November 15, 2019 (GMT -0500)
Morrisville Stowe State

Weather History for KMVL - September, 2019

Change the Weather History Date:

Tuesday, September 3, 2019

  Actual Average Record
Temperature  
Mean Temperature 62 °F 62 °F  
Max Temperature 71 °F 74 °F 91 °F (2010)
Min Temperature 53 °F 50 °F 42 °F (2001)
Degree Days  
Heating Degree Days 3 4  
Month to date heating degree days 13 12  
Since 1 July heating degree days 78 107  
Cooling Degree Days 0 1  
Month to date cooling degree days 0 3  
Year to date cooling degree days 243 250  
Growing Degree Days 12 (Base 50)    
Moisture  
Dew Point 54 °F    
Average Humidity 87    
Maximum Humidity 100    
Minimum Humidity 53    
Precipitation  
Precipitation 0.01 in 0.10 in 0.94 in (2017)
Month to date precipitation 1.09 0.28  
Year to date precipitation 28.32 24.04  
Sea Level Pressure  
Sea Level Pressure 30.04 in    
Wind  
Wind Speed 2 mph ()    
Max Wind Speed 10 mph    
Max Gust Speed 16 mph    
Visibility 6.9 miles    
Events Fog , Rain    
T = Trace of Precipitation, MM = Missing Value Source: Averaged Metar Reports

Daily Weather History Graph

Daily Weather History Graph

Search for Another Location

Airport or City:

Astronomy

Sep. 03, 2019 Rise Set
Actual Time 6:15 AM EDT 7:23 PM EDT
Civil Twilight 5:45 AM EDT 7:53 PM EDT
Nautical Twilight 5:09 AM EDT 8:29 PM EDT
Astronomical Twilight 4:31 AM EDT 9:07 PM EDT
Moon 11:15 AM EDT (9/3) 10:06 PM EDT (9/3)
Length of Visible Light 14h 08m
Length of Day
13h 08m
Waxing Crescent, 24% of the Moon is Illuminated
Sep 3
Waxing Crescent
Sep 5
First Quarter
Sep 14
Full
Sep 21
Last Quarter
Sep 28
New

Hourly Weather History & Observations

Time (EDT) Temp. Dew Point Humidity Pressure Visibility Wind Dir Wind Speed Gust Speed Precip Events Conditions
12:14 AM 55.0 °F 54.0 °F 96% 30.01 in 1.5 mi Calm Calm - N/A   Overcast
12:24 AM 55.0 °F 54.0 °F 96% 30.01 in 2.0 mi Calm Calm - N/A   Overcast
12:36 AM 55.0 °F 54.0 °F 96% 30.01 in 1.0 mi Calm Calm - N/A   Mist
12:44 AM 55.0 °F 54.0 °F 96% 30.02 in 0.5 mi Calm Calm - N/A Fog Fog
12:54 AM 55.0 °F 54.0 °F 96% 30.01 in 0.5 mi Calm Calm - N/A Fog Fog
1:54 AM 54.0 °F 53.1 °F 97% 30.03 in 0.5 mi Calm Calm - N/A Fog Fog
2:54 AM 54.0 °F 53.1 °F 97% 30.01 in 0.8 mi Calm Calm - N/A   Overcast
3:12 AM 54.0 °F 53.1 °F 97% 30.00 in 1.0 mi Calm Calm - N/A   Mist
3:26 AM 54.0 °F 53.1 °F 97% 29.99 in 1.2 mi Calm Calm - N/A   Overcast
3:48 AM 53.6 °F 53.6 °F 100% 29.99 in 0.8 mi Calm Calm - N/A   Mist
3:49 AM 54.0 °F 53.1 °F 97% 29.99 in 0.8 mi Calm Calm - N/A   Mist
4:07 AM 54.0 °F 54.0 °F 100% 29.99 in 1.0 mi Calm Calm - N/A   Mist
4:17 AM 54.0 °F 54.0 °F 100% 29.99 in 0.8 mi Calm Calm - N/A   Mist
4:31 AM 54.0 °F 54.0 °F 100% 29.99 in 0.8 mi Calm Calm - N/A   Overcast
4:50 AM 55.4 °F 53.6 °F 94% 30.01 in 3.0 mi North 3.5 mph - 0.01 in Rain Light Rain
4:54 AM 55.0 °F 54.0 °F 96% 30.01 in 4.0 mi North 5.8 mph - 0.01 in Rain Light Rain
5:15 AM 55.0 °F 54.0 °F 96% 30.02 in 10.0 mi Calm Calm - 0.00 in Rain Light Rain
5:22 AM 55.0 °F 54.0 °F 96% 30.02 in 10.0 mi SE 3.5 mph - 0.00 in   Overcast
5:34 AM 55.0 °F 54.0 °F 96% 30.03 in 10.0 mi Calm Calm - 0.00 in   Overcast
5:41 AM 55.0 °F 54.0 °F 96% 30.03 in 10.0 mi Calm Calm - 0.00 in   Overcast
5:54 AM 55.9 °F 55.0 °F 97% 30.04 in 10.0 mi Variable 3.5 mph - 0.00 in   Overcast
6:05 AM 55.9 °F 55.0 °F 97% 30.05 in 10.0 mi NNW 5.8 mph - N/A   Overcast
6:14 AM 55.0 °F 54.0 °F 96% 30.06 in 10.0 mi North 9.2 mph 16.1 mph N/A   Overcast
6:54 AM 55.9 °F 54.0 °F 93% 30.08 in 10.0 mi NNE 6.9 mph - N/A   Overcast
7:01 AM 55.9 °F 53.1 °F 90% 30.07 in 10.0 mi NE 5.8 mph - N/A   Overcast
7:24 AM 55.9 °F 54.0 °F 93% 30.10 in 10.0 mi NE 4.6 mph - N/A   Overcast
7:54 AM 57.0 °F 54.0 °F 89% 30.10 in 10.0 mi NNE 3.5 mph - N/A   Overcast
8:54 AM 57.9 °F 54.0 °F 87% 30.11 in 10.0 mi NNE 8.1 mph - N/A   Overcast
9:04 AM 57.9 °F 54.0 °F 87% 30.10 in 10.0 mi NNE 6.9 mph - N/A   Overcast
9:54 AM 61.0 °F 54.0 °F 78% 30.10 in 10.0 mi North 4.6 mph - N/A   Mostly Cloudy
10:16 AM 62.1 °F 54.0 °F 75% 30.10 in 10.0 mi ENE 3.5 mph - N/A   Scattered Clouds
10:54 AM 64.0 °F 53.1 °F 67% 30.10 in 10.0 mi NE 4.6 mph - N/A   Partly Cloudy
11:54 AM 64.9 °F 51.1 °F 61% 30.10 in 10.0 mi North 5.8 mph - N/A   Scattered Clouds
12:54 PM 66.9 °F 50.0 °F 54% 30.09 in 10.0 mi North 5.8 mph - N/A   Clear
1:54 PM 66.9 °F 50.0 °F 54% 30.07 in 10.0 mi Variable 3.5 mph - N/A   Partly Cloudy
2:54 PM 68.0 °F 52.0 °F 56% 30.07 in 10.0 mi Variable 4.6 mph - N/A   Mostly Cloudy
3:54 PM 70.0 °F 52.0 °F 53% 30.05 in 10.0 mi North 4.6 mph - N/A   Partly Cloudy
4:54 PM 69.1 °F 53.1 °F 57% 30.03 in 10.0 mi NE 3.5 mph - N/A   Clear
5:54 PM 69.1 °F 53.1 °F 57% 30.02 in 10.0 mi NNW 3.5 mph - N/A   Clear
6:54 PM 63.0 °F 57.0 °F 81% 30.03 in 10.0 mi Calm Calm - N/A   Mostly Cloudy
7:54 PM 59.0 °F 55.9 °F 90% 30.04 in 10.0 mi Calm Calm - N/A   Partly Cloudy
8:54 PM 57.9 °F 55.9 °F 93% 30.05 in 10.0 mi Calm Calm - N/A   Mostly Cloudy
9:54 PM 57.9 °F 55.0 °F 90% 30.03 in 10.0 mi Calm Calm - N/A   Mostly Cloudy
10:54 PM 57.9 °F 55.9 °F 93% 30.01 in 10.0 mi Calm Calm - N/A   Mostly Cloudy
11:54 PM 57.9 °F 55.9 °F 93% 29.99 in 10.0 mi SW 3.5 mph - N/A   Overcast